Location: Utrecht
(52.0907°N, 5.1214°E)
Time: 10:14:28
(UTC+02:00)

MOZHAYETS 4 - Pass Details

Date: 09 July 2022
Orbit: 660 x 679 km, 98.2° (Epoch: 09 August)

Event Time Altitude Azimuth Distance (km) Brightness Sun altitude
Exits shadow 04:07:02 - 176° (S) 2,459 10.2 -9.3°
Reaches altitude 10° 04:07:56 10° 177° (S) 2,101 9.8 -9.2°
Maximum altitude 04:12:28 61° 258° (WSW) 766 7.8 -8.9°
Drops below altitude 10° 04:17:01 10° 339° (NNW) 2,105 10.8 -8.5°
Sets 04:19:17 0° 343° (NNW) 3,020 11.7 -8.3°
